Location: Proctor
(47.8934°N, 114.3048°W)
Time: 17:33:09
(UTC+00:00)

Transit 4A - Pass Details

Date: 12 May 2025
Orbit: 866 x 975 km, 66.8° (Epoch: 13 June)

Event Time Altitude Azimuth Distance (km) Brightness Sun altitude
Rises 08:41:43 0° 312° (NW) 3,640 11.3 -22.1°
Reaches altitude 10° 08:45:57 10° 338° (NNW) 2,671 11.0 -21.9°
Maximum altitude 08:48:48 13° 6° (N) 2,421 11.1 -21.8°
Drops below altitude 10° 08:51:39 10° 34° (NE) 2,635 11.3 -21.6°
Sets 08:55:45 0° 61° (ENE) 3,549 11.7 -21.4°
